CZ-6A DEB, 61478

Orbit data source: Space-Track

CZ-6A DEB, 61478 is space debris in LEO originally from a launch on Tue, 06 Aug 2024 UTC launched from the Taiyaun Space Center, China (TSC). Debris objects in space refer to the collection of defunct objects orbiting the Earth. Examples of debris include non-operational satellites, rocket bodies, and fragments generated from explosions, collisions, or faulty payload assembly.

Loading next visibility...
Identifier
61478, 2024-140AAL
Orbit
LEO
Country
Flag of CNCN / PRC
Related business
Manufacturer
SAST
Mission
Spacecraft
Bus & Motor
Unknown
Mass
Unknown
Launch date (UTC)
2024-08-06 (1 year ago)
Launch vehicle
Unknown
Launch site
Taiyaun Space Center, China (TSC)
Object type
Payload
Rocket body
Debris
Shape & HBR
Unknown
Radar Cross Section
Small (<0.1 m²)

Expand to show TLE details & history
Last TLE update: 22 hours ago

TLE from 22 hours ago
0 CZ-6A DEB
1 61478U 24140AAL 25260.92288037  .01324387  00000-0  12905-1 0  9997
2 61478  89.0353 303.5126 0007427 350.8540   9.2592 15.63702565 56548
Epoch: 2025-09-17T22:08Z
TLE epoch observation values (Epoch: 2025-09-17T22:08:56.863Z)
Latitude
-0.00011°
Longitude
-25.8162°
Altitude
375.276 km
Speed
7.687 km/s
True Right ascension
20h 14m 03s
True Declination
0° 00' 00"
Sunlit
Object was in full shadow at epoch
Visualization orbit readout
Latitude
Unknown
Longitude
Unknown
Altitude
Unknown
Speed
Unknown
Apparent Right ascension
Unknown
Apparent Declination
Unknown
Sunlit
N/A
Visualization observer readout
Local Sidereal Time
13:02:42
Azimuth
Unknown
Elevation
Unknown
Doppler factor
Unknown
Orbital elements
Apogee altitude
378.736 km
Perigee altitude
368.706 km
Semi-major axis
6,751.858 km
Eccentricity
0.00074
Inclination
89.0353°
RAAN
303.5126°
Arg. of periapsis
350.854°
True anomaly
9.27291°
Mean anomaly
9.2592°
Eccentric anomaly
9.26605°
Mean motion
3.91208 °/min
Orbital period
92.02 mins
BSTAR
0.012905
Loading maneuver chart data...
Computing Atmospheric mass density...
Loading historical data...
Loading historical data...
Loading historical data...
Loading historical data...
Loading historical data...
Loading historical data...
Loading historical data...

Documentation

Showing up to 5 results
|